Time,TemperatureF,DewpointF,PressureIn,WindDirection,WindDirectionDegrees,WindSpeedMPH,WindSpeedGustMPH,Humidity,HourlyPrecipIn,Conditions,Clouds,dailyrainin,SoftwareType,DateUTC
2013-02-21 00:00:00,23.9,8.4,29.48,ESE,112,1.0,6.0,51,0.00,,,0.00,meteohub,2013-02-21 06:00:00,
2013-02-21 00:05:00,23.9,8.4,29.48,ESE,112,4.0,4.0,51,0.00,,,0.00,meteohub,2013-02-21 06:05:00,
2013-02-21 00:10:00,23.9,8.8,29.48,ENE,68,4.0,4.0,52,0.00,,,0.00,meteohub,2013-02-21 06:10:00,
2013-02-21 00:15:00,23.9,8.8,29.48,ENE,68,2.0,4.0,52,0.00,,,0.00,meteohub,2013-02-21 06:15:00,
2013-02-21 00:20:00,24.1,9.0,29.48,ENE,68,2.0,6.0,52,0.00,,,0.00,meteohub,2013-02-21 06:20:00,
2013-02-21 00:25:00,24.1,9.0,29.51,ENE,68,3.0,6.0,52,0.00,,,0.00,meteohub,2013-02-21 06:25:00,
2013-02-21 00:30:00,24.1,9.0,29.51,ESE,112,3.0,6.0,52,0.00,,,0.00,meteohub,2013-02-21 06:30:00,
2013-02-21 00:35:00,24.1,9.0,29.51,ESE,112,0.0,4.0,52,0.00,,,0.00,meteohub,2013-02-21 06:35:00,
2013-02-21 00:40:00,24.1,9.0,29.48,ESE,112,2.0,4.0,52,0.00,,,0.00,meteohub,2013-02-21 06:40:00,
2013-02-21 00:45:00,24.1,9.5,29.48,ESE,112,0.0,4.0,53,0.00,,,0.00,meteohub,2013-02-21 06:45:00,
2013-02-21 00:50:00,24.1,9.5,29.48,SSE,158,0.0,4.0,53,0.00,,,0.00,meteohub,2013-02-21 06:50:00,
2013-02-21 00:55:00,24.1,9.5,29.48,SSE,158,0.0,4.0,53,0.00,,,0.00,meteohub,2013-02-21 06:55:00,
2013-02-21 01:00:00,24.1,9.5,29.48,SSE,158,0.0,0.0,53,0.00,,,0.00,meteohub,2013-02-21 07:00:00,
2013-02-21 01:05:00,24.3,9.7,29.48,SSE,158,0.0,0.0,53,0.00,,,0.00,meteohub,2013-02-21 07:05:00,
2013-02-21 01:10:00,24.3,9.7,29.48,SSE,158,3.0,0.0,53,0.00,,,0.00,meteohub,2013-02-21 07:10:00,
2013-02-21 01:15:00,24.4,9.9,29.48,ESE,112,0.0,0.0,53,0.00,,,0.00,meteohub,2013-02-21 07:15:00,
2013-02-21 01:20:00,24.4,9.9,29.48,SSE,158,1.0,3.0,53,0.00,,,0.00,meteohub,2013-02-21 07:20:00,
2013-02-21 01:25:00,24.4,9.9,29.48,SSE,158,1.0,3.0,53,0.00,,,0.00,meteohub,2013-02-21 07:25:00,
2013-02-21 01:30:00,24.4,9.3,29.48,SSE,158,0.0,3.0,52,0.00,,,0.00,meteohub,2013-02-21 07:30:00,
2013-02-21 01:35:00,24.4,9.3,29.48,ESE,112,3.0,3.0,52,0.00,,,0.00,meteohub,2013-02-21 07:35:00,
2013-02-21 01:40:00,24.6,9.5,29.48,South,180,0.0,3.0,52,0.00,,,0.00,meteohub,2013-02-21 07:40:00,
2013-02-21 01:45:00,24.6,9.1,29.48,SSE,158,0.0,3.0,51,0.00,,,0.00,meteohub,2013-02-21 07:45:00,
2013-02-21 01:50:00,24.8,9.3,29.48,SSE,158,2.0,3.0,51,0.00,,,0.00,meteohub,2013-02-21 07:50:00,
2013-02-21 01:55:00,24.8,8.8,29.48,ENE,68,3.0,4.0,50,0.00,,,0.00,meteohub,2013-02-21 07:55:00,
2013-02-21 02:00:00,25.0,8.1,29.48,ENE,68,3.0,4.0,48,0.00,,,0.00,meteohub,2013-02-21 08:00:00,
2013-02-21 02:05:00,25.0,8.6,29.48,SSE,158,2.0,4.0,49,0.00,,,0.00,meteohub,2013-02-21 08:05:00,
2013-02-21 02:10:00,25.2,8.2,29.48,East,90,3.0,4.0,48,0.00,,,0.00,meteohub,2013-02-21 08:10:00,
2013-02-21 02:15:00,24.6,9.5,29.48,NNE,22,4.0,9.0,52,0.00,,,0.00,meteohub,2013-02-21 08:15:00,
2013-02-21 02:20:00,24.4,10.2,29.48,NNE,22,3.0,9.0,54,0.00,,,0.00,meteohub,2013-02-21 08:20:00,
2013-02-21 02:25:00,24.1,10.2,29.48,ENE,68,6.0,9.0,55,0.00,,,0.00,meteohub,2013-02-21 08:25:00,
2013-02-21 02:30:00,24.1,10.8,29.48,East,90,3.0,7.0,56,0.00,,,0.00,meteohub,2013-02-21 08:30:00,
2013-02-21 02:35:00,23.9,10.9,29.48,ENE,68,4.0,7.0,57,0.00,,,0.00,meteohub,2013-02-21 08:35:00,
2013-02-21 02:40:00,23.7,10.8,29.48,ENE,68,6.0,6.0,57,0.00,,,0.00,meteohub,2013-02-21 08:40:00,
2013-02-21 02:45:00,23.5,10.6,29.48,East,90,6.0,10.0,57,0.00,,,0.00,meteohub,2013-02-21 08:45:00,
2013-02-21 02:50:00,23.5,10.9,29.48,ESE,112,6.0,10.0,58,0.00,,,0.00,meteohub,2013-02-21 08:50:00,
2013-02-21 02:55:00,23.4,10.8,29.48,NNE,22,4.0,10.0,58,0.00,,,0.00,meteohub,2013-02-21 08:55:00,
2013-02-21 03:00:00,23.4,10.8,29.48,ENE,68,9.0,9.0,58,0.00,,,0.00,meteohub,2013-02-21 09:00:00,
2013-02-21 03:05:00,23.4,10.8,29.48,ENE,68,3.0,9.0,58,0.00,,,0.00,meteohub,2013-02-21 09:05:00,
2013-02-21 03:10:00,23.2,10.6,29.48,ENE,68,4.0,9.0,58,0.00,,,0.00,meteohub,2013-02-21 09:10:00,
2013-02-21 03:15:00,23.2,10.6,29.48,NNE,22,3.0,9.0,58,0.00,,,0.00,meteohub,2013-02-21 09:15:00,
2013-02-21 03:20:00,23.2,10.6,29.48,ENE,68,6.0,7.0,58,0.00,,,0.00,meteohub,2013-02-21 09:20:00,
2013-02-21 03:25:00,23.2,10.6,29.48,ENE,68,5.0,6.0,58,0.00,,,0.00,meteohub,2013-02-21 09:25:00,
2013-02-21 03:30:00,23.2,10.6,29.48,ENE,68,4.0,6.0,58,0.00,,,0.00,meteohub,2013-02-21 09:30:00,
2013-02-21 03:35:00,23.4,10.8,29.48,ENE,68,5.0,6.0,58,0.00,,,0.00,meteohub,2013-02-21 09:35:00,
2013-02-21 03:40:00,23.4,10.8,29.48,ENE,68,1.0,6.0,58,0.00,,,0.00,meteohub,2013-02-21 09:40:00,
2013-02-21 03:45:00,23.4,10.8,29.48,NNE,22,3.0,6.0,58,0.00,,,0.00,meteohub,2013-02-21 09:45:00,
2013-02-21 03:50:00,23.4,10.8,29.48,North,0,1.0,5.0,58,0.00,,,0.00,meteohub,2013-02-21 09:50:00,
2013-02-21 03:55:00,23.5,10.9,29.48,NNE,22,2.0,5.0,58,0.00,,,0.00,meteohub,2013-02-21 09:55:00,
2013-02-21 04:00:00,23.5,10.9,29.48,NE,45,3.0,6.0,58,0.00,,,0.00,meteohub,2013-02-21 10:00:00,
2013-02-21 04:05:00,23.5,10.9,29.48,ENE,68,3.0,6.0,58,0.00,,,0.00,meteohub,2013-02-21 10:05:00,
2013-02-21 04:10:00,23.5,11.3,29.48,NNE,22,3.0,6.0,59,0.00,,,0.00,meteohub,2013-02-21 10:10:00,
2013-02-21 04:15:00,23.5,11.3,29.48,ESE,112,0.0,6.0,59,0.00,,,0.00,meteohub,2013-02-21 10:15:00,
2013-02-21 04:20:00,23.7,11.5,29.48,ESE,112,5.0,6.0,59,0.00,,,0.00,meteohub,2013-02-21 10:20:00,
2013-02-21 04:25:00,23.7,11.5,29.48,ENE,68,4.0,6.0,59,0.00,,,0.00,meteohub,2013-02-21 10:25:00,
2013-02-21 04:30:00,23.9,12.0,29.48,ENE,68,0.0,6.0,60,0.00,,,0.00,meteohub,2013-02-21 10:30:00,
2013-02-21 04:35:00,23.9,12.0,29.48,East,90,2.0,6.0,60,0.00,,,0.00,meteohub,2013-02-21 10:35:00,
2013-02-21 04:40:00,23.9,12.0,29.48,ENE,68,6.0,6.0,60,0.00,,,0.00,meteohub,2013-02-21 10:40:00,
2013-02-21 04:45:00,24.1,12.2,29.48,ENE,68,6.0,9.0,60,0.00,,,0.00,meteohub,2013-02-21 10:45:00,
2013-02-21 04:50:00,24.1,12.2,29.48,ENE,68,3.0,9.0,60,0.00,,,0.00,meteohub,2013-02-21 10:50:00,
2013-02-21 04:55:00,24.1,12.2,29.51,East,90,4.0,9.0,60,0.00,,,0.00,meteohub,2013-02-21 10:55:00,
2013-02-21 05:00:00,24.3,12.4,29.51,ESE,112,3.0,6.0,60,0.00,,,0.00,meteohub,2013-02-21 11:00:00,
2013-02-21 05:05:00,24.3,12.4,29.51,ENE,68,2.0,6.0,60,0.00,,,0.00,meteohub,2013-02-21 11:05:00,
2013-02-21 05:10:00,24.3,12.4,29.51,ENE,68,3.0,6.0,60,0.00,,,0.00,meteohub,2013-02-21 11:10:00,
2013-02-21 05:15:00,24.4,12.9,29.51,NNE,22,4.0,5.0,61,0.00,,,0.00,meteohub,2013-02-21 11:15:00,
2013-02-21 05:20:00,24.4,12.9,29.51,East,90,4.0,5.0,61,0.00,,,0.00,meteohub,2013-02-21 11:20:00,
2013-02-21 05:25:00,24.4,12.9,29.51,ENE,68,3.0,6.0,61,0.00,,,0.00,meteohub,2013-02-21 11:25:00,
2013-02-21 05:30:00,24.6,13.5,29.51,ENE,68,4.0,6.0,62,0.00,,,0.00,meteohub,2013-02-21 11:30:00,
2013-02-21 05:35:00,24.6,13.5,29.51,East,90,3.0,4.0,62,0.00,,,0.00,meteohub,2013-02-21 11:35:00,
2013-02-21 05:40:00,24.8,13.6,29.51,East,90,0.0,4.0,62,0.00,,,0.00,meteohub,2013-02-21 11:40:00,
2013-02-21 05:46:00,25.0,13.8,29.51,ENE,68,2.0,4.0,62,0.00,,,0.00,meteohub,2013-02-21 11:46:00,
2013-02-21 05:50:00,25.0,13.8,29.51,NNW,338,0.0,4.0,62,0.00,,,0.00,meteohub,2013-02-21 11:50:00,
2013-02-21 05:56:00,25.2,14.0,29.54,East,90,2.0,5.0,62,0.00,,,0.00,meteohub,2013-02-21 11:56:00,
2013-02-21 06:01:00,25.3,14.2,29.54,East,90,0.0,5.0,62,0.00,,,0.00,meteohub,2013-02-21 12:01:00,
2013-02-21 06:06:00,25.3,13.8,29.54,SSW,202,1.0,5.0,61,0.00,,,0.00,meteohub,2013-02-21 12:06:00,
2013-02-21 06:10:00,25.5,14.0,29.51,ESE,112,3.0,3.0,61,0.00,,,0.00,meteohub,2013-02-21 12:10:00,
2013-02-21 06:15:00,25.7,14.2,29.51,ESE,112,6.0,6.0,61,0.00,,,0.00,meteohub,2013-02-21 12:15:00,
2013-02-21 06:21:00,25.9,14.0,29.51,SE,135,4.0,7.0,60,0.00,,,0.00,meteohub,2013-02-21 12:21:00,
2013-02-21 06:26:00,26.1,14.2,29.51,ESE,112,1.0,7.0,60,0.00,,,0.00,meteohub,2013-02-21 12:26:00,
2013-02-21 06:30:00,26.1,13.6,29.51,South,180,3.0,7.0,59,0.00,,,0.00,meteohub,2013-02-21 12:30:00,
2013-02-21 06:35:00,26.1,13.6,29.51,SSE,158,1.0,5.0,59,0.00,,,0.00,meteohub,2013-02-21 12:35:00,
2013-02-21 06:40:00,26.1,13.6,29.48,SSE,158,3.0,4.0,59,0.00,,,0.00,meteohub,2013-02-21 12:40:00,
2013-02-21 06:45:00,26.2,14.4,29.48,SSE,158,7.0,7.0,60,0.00,,,0.00,meteohub,2013-02-21 12:45:00,
2013-02-21 06:50:00,26.1,13.6,29.48,SSE,158,5.0,8.0,59,0.00,,,0.00,meteohub,2013-02-21 12:50:00,
2013-02-21 06:55:00,26.1,13.3,29.48,SSE,158,6.0,8.0,58,0.00,,,0.00,meteohub,2013-02-21 12:55:00,
2013-02-21 07:01:00,25.9,13.1,29.48,SSE,158,3.0,9.0,58,0.00,,,0.00,meteohub,2013-02-21 13:01:00,
2013-02-21 07:06:00,25.9,13.1,29.48,SSE,158,6.0,9.0,58,0.00,,,0.00,meteohub,2013-02-21 13:06:00,
2013-02-21 07:11:00,25.7,12.9,29.51,SSW,202,3.0,9.0,58,0.00,,,0.00,meteohub,2013-02-21 13:11:00,
2013-02-21 07:16:00,25.7,12.9,29.51,South,180,1.0,6.0,58,0.00,,,0.00,meteohub,2013-02-21 13:16:00,
2013-02-21 07:21:00,25.7,12.9,29.51,SSE,158,6.0,6.0,58,0.00,,,0.00,meteohub,2013-02-21 13:21:00,
2013-02-21 07:26:00,25.7,12.6,29.51,SSW,202,1.0,6.0,57,0.00,,,0.00,meteohub,2013-02-21 13:26:00,
2013-02-21 07:31:00,25.5,12.4,29.51,WSW,248,4.0,6.0,57,0.00,,,0.00,meteohub,2013-02-21 13:31:00,
2013-02-21 07:36:00,25.2,11.7,29.51,SW,225,3.0,6.0,56,0.00,,,0.00,meteohub,2013-02-21 13:36:00,
2013-02-21 07:41:00,25.0,11.5,29.51,WSW,248,3.0,6.0,56,0.00,,,0.00,meteohub,2013-02-21 13:41:00,
2013-02-21 07:46:00,25.0,11.5,29.51,WSW,248,0.0,5.0,56,0.00,,,0.00,meteohub,2013-02-21 13:46:00,
2013-02-21 07:51:00,24.8,11.8,29.51,SSW,202,1.0,5.0,57,0.00,,,0.00,meteohub,2013-02-21 13:51:00,
2013-02-21 07:56:00,24.8,11.8,29.51,SSW,202,1.0,6.0,57,0.00,,,0.00,meteohub,2013-02-21 13:56:00,
2013-02-21 08:01:00,24.8,11.8,29.51,SSW,202,2.0,6.0,57,0.00,,,0.00,meteohub,2013-02-21 14:01:00,
2013-02-21 08:06:00,25.0,11.8,29.51,SSW,202,5.0,5.0,57,0.00,,,0.00,meteohub,2013-02-21 14:06:00,
2013-02-21 08:11:00,25.0,11.5,29.51,South,180,8.0,8.0,56,0.00,,,0.00,meteohub,2013-02-21 14:11:00,
2013-02-21 08:16:00,25.0,11.5,29.51,SSE,158,11.0,11.0,56,0.00,,,0.00,meteohub,2013-02-21 14:16:00,
2013-02-21 08:21:00,25.0,11.5,29.51,SSW,202,4.0,11.0,56,0.00,,,0.00,meteohub,2013-02-21 14:21:00,
2013-02-21 08:26:00,25.0,11.1,29.48,South,180,3.0,11.0,55,0.00,,,0.00,meteohub,2013-02-21 14:26:00,
2013-02-21 08:31:00,25.0,10.8,29.48,SSE,158,3.0,12.0,54,0.00,,,0.00,meteohub,2013-02-21 14:31:00,
2013-02-21 08:36:00,25.0,10.8,29.48,South,180,5.0,12.0,54,0.00,,,0.00,meteohub,2013-02-21 14:36:00,
2013-02-21 08:41:00,25.2,10.9,29.48,SSW,202,6.0,12.0,54,0.00,,,0.00,meteohub,2013-02-21 14:41:00,
2013-02-21 08:46:00,25.2,10.4,29.48,SSE,158,14.0,14.0,53,0.00,,,0.00,meteohub,2013-02-21 14:46:00,
2013-02-21 08:51:00,25.3,11.1,29.48,South,180,6.0,14.0,54,0.00,,,0.00,meteohub,2013-02-21 14:51:00,
2013-02-21 08:56:00,25.7,11.3,29.45,SSE,158,9.0,14.0,54,0.00,,,0.00,meteohub,2013-02-21 14:56:00,
2013-02-21 09:01:00,25.5,10.8,29.45,SSW,202,10.0,14.0,53,0.00,,,0.00,meteohub,2013-02-21 15:01:00,
2013-02-21 09:06:00,26.1,11.3,29.45,SSW,202,6.0,10.0,53,0.00,,,0.00,meteohub,2013-02-21 15:06:00,
2013-02-21 09:11:00,26.1,10.9,29.45,SSE,158,5.0,10.0,52,0.00,,,0.00,meteohub,2013-02-21 15:11:00,
2013-02-21 09:16:00,26.4,11.1,29.45,WNW,292,3.0,10.0,52,0.00,,,0.00,meteohub,2013-02-21 15:16:00,
2013-02-21 09:21:00,26.4,11.1,29.45,SSE,158,4.0,9.0,52,0.00,,,0.00,meteohub,2013-02-21 15:21:00,
2013-02-21 09:26:00,26.1,10.4,29.45,SSW,202,8.0,12.0,51,0.00,,,0.00,meteohub,2013-02-21 15:26:00,
2013-02-21 09:31:00,26.2,11.1,29.45,SSE,158,4.0,12.0,52,0.00,,,0.00,meteohub,2013-02-21 15:31:00,
2013-02-21 09:36:00,26.4,10.8,29.45,SSW,202,8.0,13.0,51,0.00,,,0.00,meteohub,2013-02-21 15:36:00,
2013-02-21 09:41:00,26.6,10.9,29.45,South,180,8.0,13.0,51,0.00,,,0.00,meteohub,2013-02-21 15:41:00,
2013-02-21 09:46:00,26.6,10.9,29.45,SSE,158,6.0,10.0,51,0.00,,,0.00,meteohub,2013-02-21 15:46:00,
2013-02-21 09:51:00,27.0,10.8,29.45,SSE,158,4.0,10.0,50,0.00,,,0.00,meteohub,2013-02-21 15:51:00,
2013-02-21 09:56:00,28.0,11.3,29.48,WSW,248,3.0,10.0,49,0.00,,,0.00,meteohub,2013-02-21 15:56:00,
2013-02-21 10:01:00,28.2,10.0,29.48,ESE,112,4.0,9.0,46,0.00,,,0.00,meteohub,2013-02-21 16:01:00,
2013-02-21 10:06:00,29.1,10.4,29.48,SSW,202,2.0,7.0,45,0.00,,,0.00,meteohub,2013-02-21 16:06:00,
2013-02-21 10:11:00,29.1,10.0,29.48,SSW,202,3.0,7.0,44,0.00,,,0.00,meteohub,2013-02-21 16:11:00,
2013-02-21 10:16:00,28.6,9.0,29.48,WSW,248,1.0,6.0,43,0.00,,,0.00,meteohub,2013-02-21 16:16:00,
2013-02-21 10:21:00,28.6,9.5,29.48,NNW,338,4.0,6.0,44,0.00,,,0.00,meteohub,2013-02-21 16:21:00,
2013-02-21 10:26:00,28.2,9.1,29.48,SSW,202,2.0,6.0,44,0.00,,,0.00,meteohub,2013-02-21 16:26:00,
2013-02-21 10:31:00,28.2,9.1,29.48,SSE,158,4.0,7.0,44,0.00,,,0.00,meteohub,2013-02-21 16:31:00,
2013-02-21 10:37:00,27.9,9.3,29.48,West,270,2.0,10.0,45,0.00,,,0.00,meteohub,2013-02-21 16:37:00,
2013-02-21 10:42:00,27.9,9.3,29.48,SSE,158,3.0,10.0,45,0.00,,,0.00,meteohub,2013-02-21 16:42:00,
2013-02-21 10:47:00,28.2,10.0,29.48,SSE,158,1.0,10.0,46,0.00,,,0.00,meteohub,2013-02-21 16:47:00,
2013-02-21 10:52:00,28.0,9.0,29.48,South,180,6.0,8.0,44,0.00,,,0.00,meteohub,2013-02-21 16:52:00,
2013-02-21 10:57:00,28.0,9.5,29.45,SSE,158,7.0,7.0,45,0.00,,,0.00,meteohub,2013-02-21 16:57:00,
2013-02-21 11:02:00,28.4,10.2,29.45,SSE,158,5.0,7.0,46,0.00,,,0.00,meteohub,2013-02-21 17:02:00,
2013-02-21 11:07:00,28.0,10.0,29.45,SSE,158,5.0,7.0,46,0.00,,,0.00,meteohub,2013-02-21 17:07:00,
2013-02-21 11:12:00,28.0,9.5,29.45,ESE,112,2.0,7.0,45,0.00,,,0.00,meteohub,2013-02-21 17:12:00,
2013-02-21 11:17:00,28.2,9.7,29.45,West,270,6.0,7.0,45,0.00,,,0.00,meteohub,2013-02-21 17:17:00,
2013-02-21 11:22:00,28.0,9.5,29.45,SSE,158,2.0,7.0,45,0.00,,,0.00,meteohub,2013-02-21 17:22:00,
2013-02-21 11:27:00,27.7,9.1,29.45,WSW,248,6.0,6.0,45,0.00,,,0.00,meteohub,2013-02-21 17:27:00,
2013-02-21 11:32:00,27.1,9.1,29.45,WSW,248,4.0,8.0,46,0.00,,,0.00,meteohub,2013-02-21 17:32:00,
2013-02-21 11:37:00,27.3,9.9,29.45,SSW,202,6.0,8.0,47,0.00,,,0.00,meteohub,2013-02-21 17:37:00,
2013-02-21 11:42:00,27.0,9.0,29.45,WSW,248,4.0,7.0,46,0.00,,,0.00,meteohub,2013-02-21 17:42:00,
2013-02-21 11:47:00,27.0,9.9,29.45,WNW,292,4.0,10.0,48,0.00,,,0.00,meteohub,2013-02-21 17:47:00,
2013-02-21 11:52:00,27.1,10.0,29.45,SSW,202,5.0,10.0,48,0.00,,,0.00,meteohub,2013-02-21 17:52:00,
2013-02-21 11:57:00,27.0,9.9,29.45,SW,225,4.0,10.0,48,0.00,,,0.00,meteohub,2013-02-21 17:57:00,
2013-02-21 12:02:00,27.0,9.5,29.45,SSW,202,4.0,9.0,47,0.00,,,0.00,meteohub,2013-02-21 18:02:00,
2013-02-21 12:07:00,27.0,9.5,29.45,SSW,202,4.0,9.0,47,0.00,,,0.00,meteohub,2013-02-21 18:07:00,
2013-02-21 12:12:00,27.0,9.5,29.42,SSW,202,8.0,10.0,47,0.00,,,0.00,meteohub,2013-02-21 18:12:00,
2013-02-21 12:17:00,26.4,9.5,29.42,WSW,248,4.0,13.0,48,0.00,,,0.00,meteohub,2013-02-21 18:17:00,
2013-02-21 12:22:00,27.0,9.9,29.42,SSE,158,1.0,13.0,48,0.00,,,0.00,meteohub,2013-02-21 18:22:00,
2013-02-21 12:27:00,27.0,9.5,29.42,SSE,158,4.0,13.0,47,0.00,,,0.00,meteohub,2013-02-21 18:27:00,
2013-02-21 12:32:00,27.7,10.0,29.42,South,180,2.0,12.0,47,0.00,,,0.00,meteohub,2013-02-21 18:32:00,
2013-02-21 12:37:00,27.3,8.8,29.42,SE,135,3.0,8.0,45,0.00,,,0.00,meteohub,2013-02-21 18:37:00,
2013-02-21 12:42:00,27.1,8.6,29.39,SSE,158,5.0,10.0,45,0.00,,,0.00,meteohub,2013-02-21 18:42:00,
2013-02-21 12:47:00,26.6,8.6,29.39,SSW,202,6.0,13.0,46,0.00,,,0.00,meteohub,2013-02-21 18:47:00,
2013-02-21 12:52:00,26.8,8.2,29.39,SSW,202,7.0,13.0,45,0.00,,,0.00,meteohub,2013-02-21 18:52:00,
2013-02-21 12:57:00,27.0,8.4,29.39,SSE,158,17.0,17.0,45,0.00,,,0.00,meteohub,2013-02-21 18:57:00,
2013-02-21 13:02:00,26.4,7.5,29.39,SSE,158,13.0,17.0,44,0.00,,,0.00,meteohub,2013-02-21 19:02:00,
2013-02-21 13:07:00,27.0,8.1,29.39,WNW,292,6.0,17.0,44,0.00,,,0.00,meteohub,2013-02-21 19:07:00,
2013-02-21 13:12:00,27.1,7.7,29.36,SSW,202,3.0,17.0,43,0.00,,,0.00,meteohub,2013-02-21 19:12:00,
2013-02-21 13:17:00,27.3,7.3,29.36,SSW,202,1.0,13.0,42,0.00,,,0.00,meteohub,2013-02-21 19:17:00,
2013-02-21 13:22:00,27.3,7.3,29.36,SSE,158,8.0,9.0,42,0.00,,,0.00,meteohub,2013-02-21 19:22:00,
2013-02-21 13:27:00,27.0,7.5,29.36,SSW,202,2.0,8.0,43,0.00,,,0.00,meteohub,2013-02-21 19:27:00,
2013-02-21 13:32:00,26.8,7.3,29.36,WNW,292,3.0,8.0,43,0.00,,,0.00,meteohub,2013-02-21 19:32:00,
2013-02-21 13:37:00,26.4,7.5,29.36,SSW,202,7.0,8.0,44,0.00,,,0.00,meteohub,2013-02-21 19:37:00,
2013-02-21 13:42:00,26.4,7.5,29.36,SSE,158,3.0,10.0,44,0.00,,,0.00,meteohub,2013-02-21 19:42:00,
2013-02-21 13:47:00,26.8,7.9,29.36,SSW,202,9.0,12.0,44,0.00,,,0.00,meteohub,2013-02-21 19:47:00,
2013-02-21 13:52:00,26.8,7.9,29.36,NW,315,4.0,13.0,44,0.00,,,0.00,meteohub,2013-02-21 19:52:00,
2013-02-21 13:57:00,26.8,7.9,29.34,SSW,202,4.0,13.0,44,0.00,,,0.00,meteohub,2013-02-21 19:57:00,
2013-02-21 14:02:00,26.2,7.9,29.34,SW,225,7.0,13.0,45,0.00,,,0.00,meteohub,2013-02-21 20:02:00,
2013-02-21 14:07:00,26.4,8.1,29.34,SSW,202,5.0,11.0,45,0.00,,,0.00,meteohub,2013-02-21 20:07:00,
2013-02-21 14:12:00,26.2,7.9,29.34,SSW,202,4.0,11.0,45,0.00,,,0.00,meteohub,2013-02-21 20:12:00,
2013-02-21 14:17:00,26.2,7.9,29.34,SW,225,6.0,11.0,45,0.00,,,0.00,meteohub,2013-02-21 20:17:00,
2013-02-21 14:22:00,26.2,8.2,29.34,ENE,68,1.0,11.0,46,0.00,,,0.00,meteohub,2013-02-21 20:22:00,
2013-02-21 14:27:00,26.1,8.1,29.36,SSE,158,6.0,10.0,46,0.00,,,0.00,meteohub,2013-02-21 20:27:00,
2013-02-21 14:32:00,26.1,8.1,29.36,SSE,158,4.0,11.0,46,0.00,,,0.00,meteohub,2013-02-21 20:32:00,
2013-02-21 14:37:00,26.1,8.1,29.36,SSW,202,4.0,11.0,46,0.00,,,0.00,meteohub,2013-02-21 20:37:00,
2013-02-21 14:42:00,26.1,8.1,29.36,SE,135,8.0,11.0,46,0.00,,,0.00,meteohub,2013-02-21 20:42:00,
2013-02-21 14:47:00,25.9,8.1,29.36,SSE,158,8.0,10.0,46,0.00,,,0.00,meteohub,2013-02-21 20:47:00,
2013-02-21 14:52:00,25.9,8.4,29.36,SSW,202,4.0,10.0,47,0.00,,,0.00,meteohub,2013-02-21 20:52:00,
2013-02-21 14:57:00,25.9,8.4,29.36,SSW,202,4.0,10.0,47,0.00,,,0.00,meteohub,2013-02-21 20:57:00,
2013-02-21 15:02:00,25.9,8.4,29.36,South,180,1.0,10.0,47,0.00,,,0.00,meteohub,2013-02-21 21:02:00,
2013-02-21 15:07:00,26.1,9.1,29.36,South,180,3.0,10.0,48,0.00,,,0.00,meteohub,2013-02-21 21:07:00,
2013-02-21 15:12:00,26.1,8.6,29.39,WNW,292,6.0,10.0,47,0.00,,,0.00,meteohub,2013-02-21 21:12:00,
2013-02-21 15:17:00,26.1,9.1,29.39,WSW,248,3.0,10.0,48,0.00,,,0.00,meteohub,2013-02-21 21:17:00,
2013-02-21 15:22:00,26.1,9.1,29.39,SSW,202,4.0,9.0,48,0.00,,,0.00,meteohub,2013-02-21 21:22:00,
2013-02-21 15:27:00,25.9,9.0,29.39,ENE,68,2.0,7.0,48,0.00,,,0.00,meteohub,2013-02-21 21:27:00,
2013-02-21 15:32:00,25.9,9.0,29.39,South,180,8.0,10.0,48,0.00,,,0.00,meteohub,2013-02-21 21:32:00,
2013-02-21 15:37:00,25.5,8.6,29.39,WSW,248,7.0,10.0,48,0.00,,,0.00,meteohub,2013-02-21 21:37:00,
2013-02-21 15:42:00,25.7,9.1,29.36,SSW,202,2.0,12.0,49,0.00,,,0.00,meteohub,2013-02-21 21:42:00,
2013-02-21 15:47:00,25.7,9.7,29.36,WSW,248,1.0,12.0,50,0.00,,,0.00,meteohub,2013-02-21 21:47:00,
2013-02-21 15:52:00,25.7,9.7,29.36,SSW,202,6.0,12.0,50,0.00,,,0.00,meteohub,2013-02-21 21:52:00,
2013-02-21 15:57:00,25.5,9.5,29.36,SSW,202,9.0,11.0,50,0.00,,,0.00,meteohub,2013-02-21 21:57:00,
2013-02-21 16:02:00,25.5,9.5,29.36,SSW,202,5.0,10.0,50,0.00,,,0.00,meteohub,2013-02-21 22:02:00,
2013-02-21 16:07:00,25.5,9.9,29.36,SW,225,6.0,11.0,51,0.00,,,0.00,meteohub,2013-02-21 22:07:00,
2013-02-21 16:12:00,25.5,9.9,29.36,SSW,202,6.0,11.0,51,0.00,,,0.00,meteohub,2013-02-21 22:12:00,
2013-02-21 16:17:00,25.5,10.4,29.36,SSE,158,6.0,10.0,52,0.00,,,0.00,meteohub,2013-02-21 22:17:00,
2013-02-21 16:22:00,25.5,9.9,29.36,SSE,158,6.0,10.0,51,0.00,,,0.00,meteohub,2013-02-21 22:22:00,
2013-02-21 16:27:00,25.3,9.7,29.36,SSW,202,2.0,11.0,51,0.00,,,0.00,meteohub,2013-02-21 22:27:00,
2013-02-21 16:32:00,25.3,10.2,29.36,WSW,248,6.0,11.0,52,0.00,,,0.00,meteohub,2013-02-21 22:32:00,
2013-02-21 16:37:00,25.3,10.2,29.36,SSW,202,7.0,11.0,52,0.00,,,0.00,meteohub,2013-02-21 22:37:00,
2013-02-21 16:42:00,25.3,10.2,29.36,SSW,202,6.0,11.0,52,0.00,,,0.00,meteohub,2013-02-21 22:42:00,
2013-02-21 16:47:00,25.3,10.2,29.36,SSE,158,4.0,10.0,52,0.00,,,0.00,meteohub,2013-02-21 22:47:00,
2013-02-21 16:52:00,25.3,10.2,29.36,SW,225,9.0,9.0,52,0.00,,,0.00,meteohub,2013-02-21 22:52:00,
2013-02-21 16:57:00,25.3,10.2,29.34,SSW,202,6.0,11.0,52,0.00,,,0.00,meteohub,2013-02-21 22:57:00,
2013-02-21 17:02:00,25.5,10.8,29.34,SSW,202,6.0,11.0,53,0.00,,,0.00,meteohub,2013-02-21 23:02:00,
2013-02-21 17:07:00,25.5,10.4,29.34,WSW,248,3.0,11.0,52,0.00,,,0.00,meteohub,2013-02-21 23:07:00,
2013-02-21 17:12:00,25.5,10.4,29.34,SSW,202,4.0,10.0,52,0.00,,,0.00,meteohub,2013-02-21 23:12:00,
2013-02-21 17:17:00,25.5,10.4,29.34,SW,225,6.0,11.0,52,0.00,,,0.00,meteohub,2013-02-21 23:17:00,
2013-02-21 17:22:00,25.5,10.4,29.34,SSE,158,5.0,11.0,52,0.00,,,0.00,meteohub,2013-02-21 23:22:00,
2013-02-21 17:27:00,25.5,10.4,29.34,South,180,8.0,11.0,52,0.00,,,0.00,meteohub,2013-02-21 23:27:00,
2013-02-21 17:32:00,25.5,10.4,29.34,SSE,158,5.0,15.0,52,0.00,,,0.00,meteohub,2013-02-21 23:32:00,
2013-02-21 17:37:00,25.5,10.8,29.34,SW,225,3.0,15.0,53,0.00,,,0.00,meteohub,2013-02-21 23:37:00,
2013-02-21 17:42:00,25.5,10.8,29.34,SSW,202,5.0,15.0,53,0.00,,,0.00,meteohub,2013-02-21 23:42:00,
2013-02-21 17:47:00,25.5,10.8,29.34,SSW,202,4.0,10.0,53,0.00,,,0.00,meteohub,2013-02-21 23:47:00,
2013-02-21 17:52:00,25.5,10.8,29.34,SSW,202,9.0,11.0,53,0.00,,,0.00,meteohub,2013-02-21 23:52:00,
2013-02-21 17:57:00,25.5,10.4,29.34,SW,225,5.0,17.0,52,0.00,,,0.00,meteohub,2013-02-21 23:57:00,
2013-02-21 18:02:00,25.5,10.4,29.34,SSE,158,12.0,17.0,52,0.00,,,0.00,meteohub,2013-02-22 00:02:00,
2013-02-21 18:07:00,25.5,10.4,29.34,WSW,248,6.0,17.0,52,0.00,,,0.00,meteohub,2013-02-22 00:07:00,
2013-02-21 18:12:00,25.7,10.6,29.34,SSW,202,6.0,12.0,52,0.00,,,0.00,meteohub,2013-02-22 00:12:00,
2013-02-21 18:17:00,25.7,10.6,29.34,SSW,202,4.0,12.0,52,0.00,,,0.00,meteohub,2013-02-22 00:17:00,
2013-02-21 18:22:00,25.7,10.6,29.34,SSW,202,5.0,12.0,52,0.00,,,0.00,meteohub,2013-02-22 00:22:00,
2013-02-21 18:27:00,25.7,10.9,29.34,SSW,202,6.0,12.0,53,0.00,,,0.00,meteohub,2013-02-22 00:27:00,
2013-02-21 18:32:00,25.7,10.6,29.34,WNW,292,3.0,12.0,52,0.00,,,0.00,meteohub,2013-02-22 00:32:00,
2013-02-21 18:38:00,25.7,10.9,29.34,ENE,68,2.0,10.0,53,0.00,,,0.00,meteohub,2013-02-22 00:38:00,
2013-02-21 18:43:00,25.7,10.9,29.31,SSW,202,10.0,11.0,53,0.00,,,0.00,meteohub,2013-02-22 00:43:00,
2013-02-21 18:48:00,25.7,10.9,29.31,SSW,202,3.0,11.0,53,0.00,,,0.00,meteohub,2013-02-22 00:48:00,
2013-02-21 18:53:00,25.7,10.9,29.31,WSW,248,4.0,11.0,53,0.00,,,0.00,meteohub,2013-02-22 00:53:00,
2013-02-21 18:58:00,25.7,10.9,29.31,West,270,6.0,11.0,53,0.00,,,0.00,meteohub,2013-02-22 00:58:00,
2013-02-21 19:03:00,25.7,10.9,29.31,WSW,248,6.0,11.0,53,0.00,,,0.00,meteohub,2013-02-22 01:03:00,
2013-02-21 19:08:00,25.7,10.9,29.31,WSW,248,7.0,13.0,53,0.00,,,0.00,meteohub,2013-02-22 01:08:00,
2013-02-21 19:13:00,25.7,10.9,29.31,SSW,202,6.0,13.0,53,0.00,,,0.00,meteohub,2013-02-22 01:13:00,
2013-02-21 19:18:00,25.7,10.9,29.31,WSW,248,4.0,13.0,53,0.00,,,0.00,meteohub,2013-02-22 01:18:00,
2013-02-21 19:23:00,25.7,11.3,29.31,SSW,202,7.0,13.0,54,0.00,,,0.00,meteohub,2013-02-22 01:23:00,
2013-02-21 19:28:00,25.7,10.9,29.31,SW,225,3.0,13.0,53,0.00,,,0.00,meteohub,2013-02-22 01:28:00,
2013-02-21 19:33:00,25.7,10.9,29.31,South,180,6.0,13.0,53,0.00,,,0.00,meteohub,2013-02-22 01:33:00,
2013-02-21 19:38:00,25.7,10.9,29.31,West,270,6.0,13.0,53,0.00,,,0.00,meteohub,2013-02-22 01:38:00,
2013-02-21 19:43:00,25.9,11.1,29.31,SSW,202,7.0,15.0,53,0.00,,,0.00,meteohub,2013-02-22 01:43:00,
2013-02-21 19:48:00,25.9,11.1,29.31,WSW,248,5.0,15.0,53,0.00,,,0.00,meteohub,2013-02-22 01:48:00,
2013-02-21 19:53:00,25.9,11.1,29.31,South,180,7.0,15.0,53,0.00,,,0.00,meteohub,2013-02-22 01:53:00,
2013-02-21 19:58:00,25.9,11.1,29.31,WSW,248,4.0,11.0,53,0.00,,,0.00,meteohub,2013-02-22 01:58:00,
2013-02-21 20:03:00,25.9,11.1,29.31,SW,225,6.0,13.0,53,0.00,,,0.00,meteohub,2013-02-22 02:03:00,
2013-02-21 20:08:00,25.9,11.1,29.31,WSW,248,9.0,13.0,53,0.00,,,0.00,meteohub,2013-02-22 02:08:00,
2013-02-21 20:13:00,25.9,10.8,29.28,SW,225,12.0,13.0,52,0.00,,,0.00,meteohub,2013-02-22 02:13:00,
2013-02-21 20:18:00,25.9,10.8,29.28,ENE,68,8.0,13.0,52,0.00,,,0.00,meteohub,2013-02-22 02:18:00,
2013-02-21 20:23:00,25.9,10.8,29.28,SW,225,6.0,13.0,52,0.00,,,0.00,meteohub,2013-02-22 02:23:00,
2013-02-21 20:28:00,25.9,10.8,29.31,SW,225,6.0,13.0,52,0.00,,,0.00,meteohub,2013-02-22 02:28:00,
2013-02-21 20:33:00,25.9,10.8,29.31,SSW,202,9.0,13.0,52,0.00,,,0.00,meteohub,2013-02-22 02:33:00,
2013-02-21 20:38:00,25.9,10.8,29.31,ESE,112,3.0,13.0,52,0.00,,,0.00,meteohub,2013-02-22 02:38:00,
2013-02-21 20:43:00,25.9,10.2,29.28,WSW,248,13.0,13.0,51,0.00,,,0.00,meteohub,2013-02-22 02:43:00,
2013-02-21 20:48:00,25.9,10.2,29.28,NNW,338,6.0,17.0,51,0.00,,,0.00,meteohub,2013-02-22 02:48:00,
2013-02-21 20:53:00,25.9,10.8,29.28,WSW,248,11.0,18.0,52,0.00,,,0.00,meteohub,2013-02-22 02:53:00,
2013-02-21 20:58:00,25.7,10.6,29.25,WSW,248,6.0,18.0,52,0.00,,,0.00,meteohub,2013-02-22 02:58:00,
2013-02-21 21:03:00,25.7,10.6,29.25,West,270,11.0,14.0,52,0.00,,,0.00,meteohub,2013-02-22 03:03:00,
2013-02-21 21:08:00,25.7,10.6,29.25,SSW,202,4.0,13.0,52,0.00,,,0.00,meteohub,2013-02-22 03:08:00,
2013-02-21 21:13:00,25.7,10.6,29.25,WNW,292,14.0,14.0,52,0.00,,,0.00,meteohub,2013-02-22 03:13:00,
2013-02-21 21:18:00,25.5,10.8,29.25,WSW,248,9.0,14.0,53,0.00,,,0.00,meteohub,2013-02-22 03:18:00,
2013-02-21 21:23:00,25.5,10.4,29.25,SW,225,8.0,15.0,52,0.00,,,0.00,meteohub,2013-02-22 03:23:00,
2013-02-21 21:28:00,25.5,10.4,29.22,SSW,202,12.0,18.0,52,0.00,,,0.00,meteohub,2013-02-22 03:28:00,
2013-02-21 21:33:00,25.5,10.8,29.22,ESE,112,8.0,18.0,53,0.00,,,0.00,meteohub,2013-02-22 03:33:00,
2013-02-21 21:38:00,25.5,10.8,29.22,SSE,158,7.0,17.0,53,0.00,,,0.00,meteohub,2013-02-22 03:38:00,
2013-02-21 21:43:00,25.3,10.6,29.22,SSW,202,13.0,17.0,53,0.00,,,0.00,meteohub,2013-02-22 03:43:00,
2013-02-21 21:48:00,25.3,11.1,29.22,South,180,6.0,18.0,54,0.00,,,0.00,meteohub,2013-02-22 03:48:00,
2013-02-21 21:53:00,25.3,11.1,29.22,SSE,158,6.0,19.0,54,0.00,,,0.00,meteohub,2013-02-22 03:53:00,
2013-02-21 21:58:00,25.2,11.7,29.22,SSE,158,6.0,19.0,56,0.00,,,0.00,meteohub,2013-02-22 03:58:00,
2013-02-21 22:03:00,25.0,12.4,29.22,WSW,248,10.0,18.0,58,0.00,,,0.00,meteohub,2013-02-22 04:03:00,
2013-02-21 22:08:00,24.8,13.3,29.19,SSW,202,7.0,18.0,61,0.00,,,0.00,meteohub,2013-02-22 04:08:00,
2013-02-21 22:13:00,24.4,14.0,29.19,SSE,158,9.0,17.0,64,0.00,,,0.00,meteohub,2013-02-22 04:13:00,
2013-02-21 22:18:00,24.3,15.6,29.19,East,90,10.0,20.0,69,0.00,,,0.00,meteohub,2013-02-22 04:18:00,
2013-02-21 22:23:00,23.9,16.2,29.16,SSW,202,9.0,20.0,72,0.00,,,0.00,meteohub,2013-02-22 04:23:00,
2013-02-21 22:28:00,23.7,16.3,29.16,SW,225,14.0,20.0,73,0.00,,,0.00,meteohub,2013-02-22 04:28:00,
2013-02-21 22:33:00,23.7,16.7,29.16,WNW,292,5.0,16.0,74,0.00,,,0.00,meteohub,2013-02-22 04:33:00,
2013-02-21 22:38:00,23.5,16.9,29.19,SSE,158,10.0,16.0,75,0.00,,,0.00,meteohub,2013-02-22 04:38:00,
2013-02-21 22:43:00,23.5,16.5,29.19,SSE,158,4.0,16.0,74,0.00,,,0.00,meteohub,2013-02-22 04:43:00,
2013-02-21 22:48:00,23.5,15.8,29.19,WSW,248,13.0,14.0,72,0.00,,,0.00,meteohub,2013-02-22 04:48:00,
2013-02-21 22:53:00,23.5,15.3,29.19,SSW,202,5.0,14.0,70,0.00,,,0.00,meteohub,2013-02-22 04:53:00,
2013-02-21 22:58:00,23.5,13.8,29.19,WSW,248,13.0,19.0,66,0.00,,,0.00,meteohub,2013-02-22 04:58:00,
2013-02-21 23:00:00,23.5,13.5,29.19,SSW,202,5.0,19.0,65,0.00,,,0.00,meteohub,2013-02-22 05:00:00,
2013-02-21 23:05:00,23.5,13.1,29.19,NNE,22,11.0,15.0,64,0.00,,,0.00,meteohub,2013-02-22 05:05:00,
2013-02-21 23:10:00,23.4,13.6,29.19,WSW,248,10.0,17.0,66,0.00,,,0.00,meteohub,2013-02-22 05:10:00,
2013-02-21 23:15:00,23.2,14.5,29.19,SW,225,6.0,21.0,69,0.00,,,0.00,meteohub,2013-02-22 05:15:00,
2013-02-21 23:20:00,23.0,15.6,29.19,WSW,248,12.0,21.0,73,0.00,,,0.00,meteohub,2013-02-22 05:20:00,
2013-02-21 23:25:00,22.8,16.2,29.19,ENE,68,11.0,21.0,75,0.00,,,0.00,meteohub,2013-02-22 05:25:00,
2013-02-21 23:30:00,22.8,16.2,29.19,WSW,248,6.0,20.0,75,0.00,,,0.00,meteohub,2013-02-22 05:30:00,
2013-02-21 23:35:00,22.8,16.7,29.19,SSW,202,6.0,20.0,77,0.00,,,0.00,meteohub,2013-02-22 05:35:00,
2013-02-21 23:40:00,22.6,16.9,29.16,WSW,248,13.0,15.0,78,0.00,,,0.00,meteohub,2013-02-22 05:40:00,
2013-02-21 23:45:00,22.5,16.9,29.16,ESE,112,10.0,13.0,79,0.00,,,0.00,meteohub,2013-02-22 05:45:00,
2013-02-21 23:50:00,22.5,16.9,29.16,SSW,202,10.0,13.0,79,0.00,,,0.00,meteohub,2013-02-22 05:50:00,
2013-02-21 23:55:00,22.3,17.1,29.19,SSW,202,11.0,13.0,80,0.00,,,0.00,meteohub,2013-02-22 05:55:00,